Regional Weather Roundup
Issued by NWS

Home | Current Version | Previous Version | Text Only | Print | Product List | Glossary Off
Versions: 1 2 3 4 5 6 7 8 9 10 11 12 13 14 15 16 17 18 19 20 21 22 23 24 25 26 27 28 29 30 31 32 33 34 35 36 37 38 39 40 41 42 43 44 45 46 47 48 49 50

000
ASUS45 KBOI 251010
RWRID
WEATHER ROUNDUP FOR IDAHO
NATIONAL WEATHER SERVICE BOISE ID
400 AM MDT FRI JUL 25 2014

NOTE: "FAIR" INDICATES FEW OR NO CLOUDS BELOW 12000 FEET
WITH NO SIGNIFICANT WEATHER AND/OR OBSTRUCTIONS TO VISIBILITY

IDZ012-014-251100-
SOUTHWEST IDAHO


CITY           SKY/WX    TMP DP  RH WIND       PRES   REMARKS
BOISE          CLEAR     54  36  50 CALM      30.05S
CALDWELL       CLEAR     57  36  44 W9        30.08R
MOUNTAIN HOME  CLEAR     54  32  43 NW6       30.05R
$$

IDZ016-017-251100-
SOUTHCENTRAL IDAHO


CITY           SKY/WX    TMP DP  RH WIND       PRES   REMARKS
BURLEY         PTCLDY    56  27  32 W8        30.09S
JEROME         PTCLDY    56  31  38 SW8       30.09F
TWIN FALLS     CLEAR     56  26  31 S12       30.09F
$$

IDZ019>023-251100-
SOUTHEAST IDAHO


CITY           SKY/WX    TMP DP  RH WIND       PRES   REMARKS
IDAHO FALLS    CLEAR     50  33  52 SW9       30.12R
POCATELLO      CLEAR     55  24  30 SW9       30.12S
REXBURG        CLEAR     54  25  32 S7        30.11R
$$

IDZ006-010-011-018-031-032-251100-
CENTRAL IDAHO MOUNTAINS


CITY           SKY/WX    TMP DP  RH WIND       PRES   REMARKS
MCCALL         CLEAR     43  35  73 CALM      30.14F
HAILEY         PTCLDY    46  30  53 NW8       30.14F
STANLEY          N/A     31  23  72 S5        30.22S WCI  26
SALMON         CLEAR     52  34  50 CALM      30.09S
CHALLIS        CLEAR     47  25  42 CALM      30.12S
$$

IDZ002-004-006-007-026-251100-
NORTHERN IDAHO


CITY           SKY/WX    TMP DP  RH WIND       PRES   REMARKS
LEWISTON       CLEAR     57  43  59 SE5       30.09R
LOWELL           N/A     51  46  83 N3        30.15S
COEUR D`ALENE  MOCLDY    54  45  71 CALM      30.06S
MULLAN PASS    MOCLDY    44  39  82 VRB7      30.15S
$$



USA.gov is the U.S. government's official web portal to all federal, state and local government web resources and services.